Location: ?
(35.3544°N, 139.4507°E)
Time: 17:15:42
(UTC+00:00)

Cosmos 2227 Rocket - Pass Details

Date: 03 August 2024
Orbit: 839 x 843 km, 71.0° (Epoch: 11 September)

Event Time Altitude Azimuth Distance (km) Brightness Sun altitude
Rises 15:14:59 0° 331° (NNW) 3,397 6.0 -37.0°
Reaches altitude 10° 15:17:32 10° 324° (NW) 2,459 5.0 -36.9°
Enters shadow 15:19:16 20° 316° (NW) 1,870 4.3 -36.9°
